Location: *
(49.4547°N, 7.9131°E)
Time: 14:13:58
(UTC+00:00)

Daily predictions for brighter satellites

Satellite Brightness Start Highest point End
(mag) Time Altitude Azimuth Time Altitude Azimuth Time Altitude Azimuth
NOAA 11 4.4 17:47:02 10° SE 17:52:22 54° ENE 17:57:43 10° N
Cosmos 1743 4.5 17:50:59 10° SW 17:54:37 39° WNW 17:58:19 10° N
GEOS 3 Rocket 4.0 17:50:29 10° ESE 17:55:23 49° NE 18:00:20 10° NW
COSMOS 2428 3.2 17:51:03 10° NNW 17:56:42 66° WSW 18:02:19 10° SSE
ARGOS 4.4 17:59:02 10° ESE 18:03:08 23° ENE 18:07:15 10° N
Cosmos 2151 Rocket 4.1 18:01:08 10° SSW 18:05:30 65° WNW 18:09:54 10° N
Meteor 1-4 Rocket 3.5 18:02:49 10° N 18:05:54 27° ENE 18:08:57 10° SE
USA 186 3.2 18:06:02 10° ESE 18:08:46 23° ENE 18:11:31 10° NNE
Cosmos 2227 Rocket 3.0 18:05:29 10° SSE 18:10:13 28° ESE 18:14:58 10° NE
Cosmos 1455 Rocket 4.3 18:07:56 10° SE 18:11:15 21° E 18:14:35 10° NE
YAOGAN 6 4.0 18:09:49 10° S 18:13:21 44° W 18:16:57 10° NNW
Timation 2 Rocket 4.4 18:07:01 10° SW 18:13:32 71° WNW 18:19:49 10° NNE
CZ-2D R/B 3.2 18:09:45 10° SSE 18:13:33 85° ENE 18:17:23 10° NNW
CZ-4 R/B 3.0 18:10:44 10° SSW 18:14:24 38° W 18:18:09 10° NNW
SJ-6B 3.9 18:11:40 10° SE 18:15:11 28° ENE 18:18:41 10° N
SPOT 3 Rocket 4.2 18:10:47 10° SE 18:15:24 35° ENE 18:20:03 10° N
Cosmos 2219 3.4 18:10:17 10° S 18:15:48 51° ESE 18:21:21 10° NE
Cosmos 1371 Rocket 4.4 18:10:56 10° S 18:15:55 42° ESE 18:20:57 10° NE
Cosmos 2297 Rocket 2.7 18:15:14 10° S 18:20:17 35° ESE 18:25:23 10° NE
Cosmos 676 Rocket 4.3 18:19:50 10° NNW 18:24:58 49° ENE 18:30:00 10° SE
Cosmos 1023 Rocket 4.5 18:24:22 10° NNW 18:29:30 64° ENE 18:34:33 10° SE
Lacrosse 5 rocket 1.7 18:31:26 10° SSW 18:34:45 33° SE 18:37:12 16° ENE
MOS 1 4.3 18:29:10 10° SSE 18:34:51 77° ENE 18:40:33 10° NNW
In-Cosmos 22 4.1 18:30:50 10° N 18:36:13 70° ENE 18:41:41 10° SSE
Okean 1 Rocket 3.4 18:31:57 10° SSW 18:36:17 70° WNW 18:40:40 10° N
Cosmos 405 Rocket 2.9 18:33:39 10° SSE 18:37:10 44° E 18:40:45 10° NNE
GENESIS II 4.3 18:33:09 10° NW 18:37:17 84° SW 18:40:52 13° SE
Cosmos 1461 4.5 18:34:38 10° WSW 18:38:18 33° NW 18:41:55 10° NNE
Cosmos 2341 Rocket 3.9 18:32:38 10° N 18:38:56 76° E 18:45:08 10° SSE
Cosmos 2181 Rocket 4.2 18:33:49 10° SSE 18:39:48 50° E 18:45:55 10° NNE
Cosmos 1939 Rocket 3.5 18:37:05 10° S 18:40:52 55° W 18:44:41 10° NNW
Cosmos 1190 Rocket 4.1 18:35:41 10° NNW 18:41:01 84° WSW 18:46:16 10° SSE
H-2A R/B 2.4 18:40:24 14° SE 18:44:27 44° ENE 18:49:16 10° N
Cosmos 1437 Rocket 3.1 18:42:45 10° N 18:46:22 40° ENE 18:48:19 22° SE
Cosmos 1674 3.3 18:43:19 10° N 18:46:47 35° ENE 18:48:20 24° ESE
Cosmos 614 Rocket 4.3 18:41:57 10° NNW 18:47:10 70° WSW 18:52:18 10° SSE
Cosmos 2237 Rocket 2.6 18:44:01 10° NNW 18:49:41 65° WSW 18:55:18 10° SSE
Resurs 1-3 4.4 18:47:34 21° ESE 18:49:42 34° ENE 18:53:40 10° N
Cosmos 2333 Rocket 4.3 18:45:01 10° NW 18:49:45 28° WSW 18:54:30 10° SSW
Meteor 1-15 Rocket 4.2 18:44:39 10° S 18:50:25 76° E 18:56:20 10° NNE
Cosmos 2366 rocket 4.1 18:45:22 10° N 18:51:39 56° ENE 18:57:53 10° SSE
ADEOS Rocket 3.9 18:45:20 10° NNE 18:52:21 42° E 18:59:38 10° SSE
Cosmos 2218 Rocket 4.1 18:46:11 10° N 18:52:31 60° ENE 18:58:44 10° SSE
Meteor 1-24 Rocket 4.0 18:53:02 10° N 18:58:44 54° ENE 19:03:15 17° SSE
Ariane Rocket 4.1 18:53:54 10° S 18:58:45 46° W 19:03:40 10° NNW
SL-8 Rocket 3.9 18:53:47 10° N 19:00:01 78° E 19:06:11 10° SSE
Cosmos 389 Rocket 3.5 18:57:11 10° NNW 19:00:29 45° W 19:03:46 10° S
FREGAT/IRIS 3.3 18:57:56 10° S 19:00:40 49° W 19:03:26 10° NNW
Resurs 01 Rocket 2.3 19:02:49 29° ESE 19:04:13 36° ENE 19:08:18 10° N
CZ-2C R/B 3.5 18:59:56 10° NNE 19:04:24 74° ESE 19:08:49 10° S
SJ-11-01 4.4 19:00:07 10° S 19:04:52 77° WSW 19:09:39 10° NNW
Cosmos 1892 Rocket 4.0 19:03:39 10° NNW 19:08:04 65° W 19:12:26 10° S
Cosmos 1805 3.4 19:06:58 26° SSE 19:08:45 47° E 19:12:31 10° NNE
USA 234 3.9 19:03:13 10° ENE 19:09:32 52° NNW 19:15:51 10° W
SAR-Lupe-2 3.8 19:06:29 10° N 19:10:04 69° WNW 19:13:36 10° SSW
Cosmos 1959 Rocket 4.4 19:06:03 10° N 19:12:13 80° E 19:18:25 10° SSE
Cosmos 2056 Rocket 3.7 19:08:57 10° SSW 19:14:22 81° WNW 19:19:49 10° NNE
ASTEX 1 3.8 19:10:05 10° N 19:14:56 64° W 19:19:45 10° SSW
Cosmos 1420 Rocket 4.1 19:12:10 10° S 19:17:18 53° ESE 19:22:30 10° NNE
CZ-4C R/B 4.2 19:13:54 10° NW 19:19:02 25° N 19:24:41 11° ENE
KORONAS-FOTON 3.6 19:17:42 10° N 19:21:30 77° E 19:22:29 47° SSE
SL-16 R/B 2.2 19:17:04 10° NNW 19:22:47 86° WSW 19:26:04 27° SSE
CZ-2C R/B 4.2 19:18:34 10° NE 19:21:05 19° ENE 19:21:05 19° ENE
Cosmos 1140 Rocket 4.3 19:20:01 10° NNW 19:25:00 48° WSW 19:29:46 11° S
Cosmos 1624 Rocket 4.4 19:20:32 10° SW 19:25:41 64° WNW 19:30:53 10° NNE
ISS -3.9 19:23:43 10° WSW 19:26:55 77° SSW 19:26:55 77° SSW
ERBS 2.8 19:23:54 10° WNW 19:27:11 47° SW 19:27:32 45° SSW
RESURS DK-1 2.4 19:23:10 10° NNW 19:27:16 56° NE 19:27:47 52° E
SL-08 RB Rocket 3.7 19:26:58 38° SSE 19:28:44 73° ENE 19:33:25 10° N
SL-8 R/B 3.6 19:24:03 10° W 19:28:50 74° S 19:30:07 48° ESE
Cosmos 1741 Rocket 4.0 19:24:08 10° NNW 19:29:28 64° ENE 19:31:10 41° SE
Cosmos 1626 3.5 19:26:39 10° N 19:28:57 26° NE 19:28:57 26° NE
Cosmos 2084 Rocket 3.7 19:26:49 10° SW 19:31:16 74° NW 19:35:38 11° NE
Meteor 2-5 Rocket 4.2 19:27:30 10° NNW 19:33:18 65° W 19:39:09 10° S
Spot 2 Rocket 3.8 19:34:39 43° E 19:35:21 45° ENE 19:40:09 10° N
Cosmos 1733 4.1 19:39:11 36° NE 19:39:11 36° NE 19:41:39 10° NNE
Cosmos 2082 3.6 19:33:24 10° SSW 19:39:08 82° ESE 19:44:54 10° NNE
USA 186 3.9 19:36:55 12° SSW 19:39:35 28° W 19:42:36 10° NW
Meteor 1-22 Rocket 4.3 19:35:01 10° S 19:41:07 82° E 19:47:14 10° NNE
Terra 3.9 19:42:20 14° NE 19:42:20 14° NE 19:44:15 10° NNE
ARGOS 3.4 19:39:17 21° S 19:42:55 68° WSW 19:48:19 10° NNW
Cosmos 1544 Rocket 4.2 19:44:12 10° SSW 19:48:35 56° WNW 19:53:00 10° N
Cosmos 1455 Rocket 4.1 19:44:29 10° SSW 19:48:46 46° WNW 19:53:05 10° N
SL-14 R/B 3.6 19:45:42 10° N 19:48:58 54° NNE 19:48:58 54° NNE
Cosmos 2227 Rocket 2.8 19:48:23 10° SW 19:53:57 56° NW 19:59:34 10° NNE
DMSP B5D2-2 4.1 19:51:06 10° NNE 19:56:01 56° E 19:56:01 56° E
Cosmos 1934 Rocket 4.3 19:50:41 10° N 19:56:34 45° ENE 19:56:55 45° E
Cosmos 1766 4.2 19:54:23 18° SW 19:57:02 48° WNW 20:00:51 10° N
MetOp-A 4.2 19:55:16 41° S 19:57:12 77° WSW 20:02:36 10° NNW
CZ-2C R/B 3.2 19:55:55 41° S 19:57:51 78° WSW 20:03:30 10° NNW
Cosmos 2297 Rocket 3.2 19:58:47 10° SW 20:04:13 46° NW 20:09:41 10° NNE
Cosmos 1626 Rocket 4.4 20:01:57 10° NNW 20:06:05 45° W 20:07:10 37° SW
Cosmos 1452 Rocket 3.6 20:03:17 10° SSW 20:08:33 74° WNW 20:13:49 10° NNE
Cosmos 1825 Rocket 4.3 20:09:06 10° N 20:12:10 44° N 20:12:10 44° N
Lacrosse 5 rocket 2.4 20:10:11 10° WSW 20:12:54 39° WNW 20:12:54 39° WNW
USA 245 4.2 20:14:09 67° E 20:14:24 68° ENE 20:19:50 10° N
Cosmos 1943 3.2 20:16:57 10° NNW 20:22:30 67° NE 20:22:30 67° NE
H-2A R/B 3.7 20:21:02 16° SW 20:24:03 28° W 20:28:26 10° NW
Cosmos 1758 Rocket 4.4 20:20:15 10° N 20:23:21 47° NNW 20:23:21 47° NNW
Nadezhda 3 Rocket 4.0 20:30:13 55° SSW 20:31:41 79° W 20:37:57 10° N
ADEOS Rocket 4.2 20:30:50 10° N 20:37:55 52° WNW 20:45:22 10° SW
Resurs 01 Rocket 3.3 20:40:24 28° WSW 20:40:46 28° W 20:44:39 10° NW
Meteor 1-21 Rocket 4.4 20:35:31 10° NNW 20:41:26 74° W 20:41:30 74° WSW
Cosmos 1605 Rocket 4.2 20:35:51 10° N 20:41:34 61° NE 20:41:34 61° NE
Cosmos 1821 Rocket 4.3 20:38:41 10° NNW 20:44:41 58° W 20:45:40 52° SW
USA 234 3.9 20:49:56 37° NE 20:51:56 48° N 20:58:10 10° WNW
ERS-1 Rocket 3.9 21:00:53 45° NNW 21:00:53 45° NNW 21:04:22 10° NNW
Cosmos 1603 4.4 20:56:56 10° NW 21:01:45 48° W 21:01:45 48° W
SPOT 5 4.1 21:05:28 39° NNW 21:05:28 39° NNW 21:08:39 10° NNW
CZ-2C R/B 3.2 20:58:00 10° N 21:02:35 57° NNW 21:02:35 57° NNW
SL-16 R/B 4.5 21:02:52 10° WNW 21:06:02 15° W 21:07:58 13° WSW
CZ-4C R/B 3.4 21:02:50 10° NW 21:09:18 45° NE 21:09:50 44° NE
Terra 3.6 21:21:14 28° NNW 21:21:14 28° NNW 21:23:29 10° NNW
Cosmos 2082 Rocket 4.4 21:32:47 10° N 21:36:16 16° NNE 21:36:22 16° NNE
Cosmos 2263 Rocket 4.0 22:00:09 27° N 22:00:09 27° N 22:02:46 10° NNE
USA 234 4.3 22:37:17 38° NW 22:37:17 38° NW 22:41:06 10° WNW
CZ-4C R/B 4.0 22:51:17 10° NW 22:54:59 35° NW 22:54:59 35° NW
Cosmos 2082 Rocket 4.3 23:16:02 10° NNW 23:18:11 23° NNW 23:18:11 23° NNW
